Content
SEND FEEDBACK

Daily
Averages
Monthly
Summary
United States of America

POTTS JUNCTION, GUAM


Home > North America > United States > Guam
Elevation: 360 feet     Latitude: 13 33N     Longitude: 144 50E

WEATHER
 
SELECT A DAY
Number of Records: 209,044;   Date Range: 1/1/95 - 7/29/14
 
SHARE

PRINT THIS DATA

[ ← Previous Day ]
WEATHER ALMANAC - SEPTEMBER 28, 2013
[ Next Day → ]
[ °C ]   °F
Weather ElementAverageHighLow
Temperature80.9 °F86 °F (11:24 am)75.2 °F (2:40 am)
Dewpoint75.7 °F77 °F (1:54 am)75 °F (2:54 am)
Humidity84.9 %100 % (2:40 am)70 % (11:24 am)
Barometer29.73 in29.78 in (8:54 am)29.66 in (3:54 pm)
Wind Speed4.5 mph13.8 mph (2:20 am)
Wind Gust17.3 mph (2:20 am)
Weather ElementAverage
Visibility10 mi
Wind DirectionESE (116.9 °)

Weather ElementTotal
Precipitation0.06 in
Cooling Degree Days15.6 (Base 65)
Growing Degree Days30.6 (Base 50)
Averaged from 29 records on September 28, 2013
WEATHER CONDITIONS BREAKOUT
WIND DIRECTION BREAKOUT
WEATHER BY HOUR - SEPTEMBER 28, 2013
[ °C ]   °F
Local TimeTemperatureDewpointHumidityBarometerVisibilityWind DirectionWind SpeedGust SpeedPrecipitationEventsConditions
1:54 AM78.1 °F77.0 °F96 %29.75 in10.0 miSSW (200°)3.5 mphOvercast
2:20 AM78.8 °F75.2 °F89 %29.75 in10.0 miWSW (240°)13.8 mph17.3 mphOvercast
2:40 AM75.2 °F75.2 °F100 %29.74 in10.0 miWSW (240°)8.1 mphScattered Clouds
2:54 AM77.0 °F75.0 °F94 %29.74 in10.0 miWest (280°)6.9 mphThunderstormThunderstorm
3:54 AM77.0 °F75.0 °F94 %29.75 in10.0 miCalm0.00 inRain-ThunderstormLight Thunderstorms and Rain
4:54 AM77.0 °F75.9 °F96 %29.75 in10.0 miNE (40°)3.5 mph0.04 inRain-ThunderstormLight Thunderstorms and Rain
5:54 AM75.9 °F75.9 °F100 %29.75 in10.0 miSW (220°)4.6 mph0.01 inRain-ThunderstormLight Thunderstorms and Rain
6:54 AM75.9 °F75.9 °F100 %29.75 in10.0 miCalm0.01 inThunderstormThunderstorm
7:03 AM77.0 °F75.2 °F94 %29.76 in10.0 miCalmClear
7:54 AM78.1 °F77.0 °F96 %29.74 in10.0 miCalmClear
8:54 AM80.1 °F75.0 °F85 %29.78 in10.0 miCalmClear
9:54 AM82.0 °F77.0 °F85 %29.77 in10.0 miSouth (190°)3.5 mphScattered Clouds
10:54 AM84.9 °F77.0 °F77 %29.74 in10.0 miCalmScattered Clouds
11:14 AM84.2 °F75.2 °F74 %29.75 in10.0 miSSE (150°)5.8 mphMostly Cloudy
11:24 AM86.0 °F75.2 °F70 %29.75 in10.0 miSSE (150°)8.1 mphScattered Clouds
11:54 AM86.0 °F75.0 °F70 %29.71 in10.0 miSSE (150°)5.8 mphClear
12:54 PM82.9 °F77.0 °F82 %29.69 in10.0 miSW (230°)6.9 mphMostly Cloudy
1:15 PM82.4 °F75.2 °F79 %29.71 in10.0 miSouth (190°)8.1 mphOvercast
1:54 PM84.9 °F75.0 °F72 %29.67 in10.0 miSSE (150°)6.9 mphMostly Cloudy
2:54 PM86.0 °F75.9 °F72 %29.67 in10.0 miSSE (160°)9.2 mphClear
3:54 PM84.9 °F75.9 °F74 %29.66 in10.0 miSSE (160°)9.2 mphPartly Cloudy
4:54 PM84.0 °F75.0 °F74 %29.68 in10.0 miSSE (150°)8.1 mphPartly Cloudy
5:54 PM82.0 °F75.9 °F82 %29.69 in10.0 miSSE (160°)5.8 mphScattered Clouds
6:54 PM81.0 °F75.9 °F85 %29.71 in10.0 miSE (140°)4.6 mphScattered Clouds
7:54 PM81.0 °F75.0 °F82 %29.72 in10.0 miEast (80°)3.5 mphScattered Clouds
8:54 PM81.0 °F75.0 °F82 %29.73 in10.0 miCalmScattered Clouds
9:54 PM81.0 °F75.9 °F85 %29.73 in10.0 miCalmScattered Clouds
10:54 PM81.0 °F75.9 °F85 %29.72 in10.0 miESE (110°)3.5 mphClear
11:54 PM80.1 °F75.9 °F87 %29.71 in10.0 miCalmClear
Hourly data recorded from PGUM, located miles away from Potts Junction, Guam







STORIES FROM OUR PARTNERS